Regional Weather Roundup
Issued by NWS

Home | Current Version | Previous Version | Graphics & Text | Print | Product List | Glossary On
Versions: 1 2 3 4 5 6 7 8 9 10 11 12 13 14 15 16 17 18 19 20 21 22 23 24 25 26 27 28 29 30 31 32 33 34 35 36 37 38 39 40 41 42 43 44 45 46 47 48 49 50
000
ASUS43 KFSD 231910
RWRSD

WEATHER ROUNDUP FOR SOUTH DAKOTA
NATIONAL WEATHER SERVICE SIOUX FALLS SD
200 PM CDT WED JUL 23 2014

NOTE: "FAIR" INDICATES FEW OR NO CLOUDS BELOW 12,000 FEET WITH NO
SIGNIFICANT WEATHER AND/OR OBSTRUCTIONS TO VISIBILITY.


SDZ001>005-009-010-012>017-232000-
NORTHWEST AND NORTH CENTRAL SOUTH DAKOTA

CITY           SKY/WX    TMP DP  RH WIND       PRES   REMARKS
BUFFALO          N/A     78  63  59 SE15      30.12F
FAITH            N/A     80  61  52 SE16G26   30.20F
MOBRIDGE       SUNNY     80  60  50 SE16      30.21F
$$

SDZ012>016-024>037-041>051-057-063-072>074-232000-
SOUTHWEST AND SOUTH CENTRAL SOUTH DAKOTA

CITY           SKY/WX    TMP DP  RH WIND       PRES   REMARKS
RAPID CTY ARPT SUNNY     79  63  57 SE16      30.21F
PIERRE         SUNNY     84  54  35 SE18G25   30.20F
CUSTER         SUNNY     78  57  48 S12G21    30.35F
ELLSWORTH AFB  MOSUNNY   80  64  56 SE17G25   30.21F
PHILIP         SUNNY     89  60  37 SE13      30.17F
PINE RIDGE     SUNNY     85  64  49 SE8       30.22F
WINNER         FAIR      86  53  32 SE13G18   30.23F
$$

SDZ004>011-016>023-039-040-232000-
NORTHEAST SOUTH DAKOTA

CITY           SKY/WX    TMP DP  RH WIND       PRES   REMARKS
ABERDEEN       MOSUNNY   79  55  43 VRB7      30.26F
WATERTOWN      SUNNY     77  53  43 SE9       30.28S
SISSETON         N/A     77  57  50 S5        30.26F
$$

SDZ017-020-022-023-036>040-048>070-232000-
SOUTHEAST SOUTH DAKOTA

CITY           SKY/WX    TMP DP  RH WIND       PRES   REMARKS
SIOUX FALLS    MOSUNNY   78  53  41 VRB6      30.27S
HURON          SUNNY     81  54  39 E7        30.25F
CHAMBERLAIN    SUNNY     81  56  41 SE10      30.24F
MITCHELL       SUNNY     81  56  42 E8        30.25F
YANKTON        SUNNY     79  57  47 E6        30.25S
$$

ABBREVIATIONS USED IN REMARKS
   TC - TEMPERATURE IN CELSIUS
  WCI - WIND CHILL INDEX
   HX - HEAT INDEX
  VSB - VISIBILITY




USA.gov is the U.S. government's official web portal to all federal, state and local government web resources and services.